STARLINK-1260, 45404

Orbit data source: Space-Track

STARLINK-1260, 45404 is a payload satellite owned by SpaceX/Seattle (US) in LEO that was launched on Wed, 18 Mar 2020 UTC via an FALCON 9 launch vehicle from the Air Force Eastern Test Range (AFETR). Payload-class satellites include a variety of spacecraft equipped with specific instruments for various scientific and technological missions. These include communications satellites like Starlink; space stations such as the ISS; scientific satellites like the Hubble; Earth observation satellites from companies like Planet Labs, Umbra, and HawkEye 360; GPS; miniature CubeSats for education and research; and military/defense satellites.

Loading next visibility...
Identifier
45404, 2020-019AW
Orbit
LEO
Country
Flag of USUS
Related business
Manufacturer
SpaceX/Seattle
Mission
Operational Commercial Communications
Bus & Motor
STARLINK, Unknown motor
Mass
260 kg wet, ~248 kg dry
Launch date (UTC)
2020-03-18 (6 years ago)
Launch vehicle
FALCON 9
Launch site
Air Force Eastern Test Range (AFETR)
Object type
Payload
Rocket body
Debris
Shape & HBR
Box + 1 Pan, 10.1 m
Radar Cross Section
13.562 m², Large (>1 m²)

Expand to show TLE details & history
Last TLE update: 18 hours ago

TLE from 18 hours ago
0 STARLINK-1260
1 45404U 20019AW  25318.20697269  .00008505  00000-0  58982-3 0  9992
2 45404  53.0533 295.0397 0001546  83.3039 276.8125 15.06360668312452
Epoch: 2025-11-14T04:58Z
TLE epoch observation values (Epoch: 2025-11-14T04:58:02.440Z)
Latitude
-0.00009°
Longitude
166.97568°
Altitude
548.084 km
Speed
7.589 km/s
True Right ascension
19h 40m 09s
True Declination
0° 00' 00"
Sunlit
Object was in daylight at epoch
Visualization orbit readout
Latitude
Unknown
Longitude
Unknown
Altitude
Unknown
Speed
Unknown
Apparent Right ascension
Unknown
Apparent Declination
Unknown
Sunlit
N/A
Visualization observer readout
Local Sidereal Time
20:03:35
Azimuth
Unknown
Elevation
Unknown
Doppler factor
Unknown
Orbital elements
Apogee altitude
548.674 km
Perigee altitude
546.532 km
Semi-major axis
6,925.74 km
Eccentricity
0.00015
Inclination
53.0533°
RAAN
295.0397°
Arg. of periapsis
83.3039°
True anomaly
276.79491°
Mean anomaly
276.8125°
Eccentric anomaly
276.8037°
Mean motion
3.76568 °/min
Orbital period
95.6 mins
BSTAR
0.00058982
Loading maneuver chart data...
Computing Atmospheric mass density...

Documentation

Showing up to 5 results
|